Sergiyev Posad, Russia
Current Conditions -  °F | °C
As of 12:30 AM on Tuesday 25 Nov 2014 (Local Time) from UUEE Reporting Station
Overcast Overcast  
Wind Chill: 21°   Ceiling: 700
Heat Index: 28°   Visibility: 4mi
Dew Point: 25°   Wind: 7mph
Humidity: 86%   Direction: 200°SSW
Pressure: 30.62"   Gusts: NA
Location:  56.32°N, 38.13°E
Report Text: UUEE 242130Z 20003MPS 6000 OVC007 M02/M04 Q1037 25150056 TEMPO-FZDZ
Loading
Personal Weather Stations






























Interactive Weather Map New forecast layout! Learn more

10-Day Weather Forecast

Advertisements
Track Severe Weather on mobile